STARLINK-32355, 61634

Orbit data source: Space-Track

STARLINK-32355, 61634 is a payload satellite owned by SpaceX/Seattle (US) in LEO that was launched on Wed, 23 Oct 2024 UTC via an FALCON 9 launch vehicle from the Air Force Eastern Test Range (AFETR). Payload-class satellites include a variety of spacecraft equipped with specific instruments for various scientific and technological missions. These include communications satellites like Starlink; space stations such as the ISS; scientific satellites like the Hubble; Earth observation satellites from companies like Planet Labs, Umbra, and HawkEye 360; GPS; miniature CubeSats for education and research; and military/defense satellites.

Loading next visibility...
Identifier
61634, 2024-191P
Orbit
LEO
Last TLE update
4 hours ago
Origin
Manufacturer
SpaceX/Seattle
Mission
Operational Commercial Communications
Bus & Motor
STARLINK V2M, Unknown motor
Mass
730 kg wet, ~700 kg dry
Launch date (UTC)
2024-10-23 (8 months ago)
Launch vehicle
FALCON 9
Launch site
Air Force Eastern Test Range (AFETR)
Object type
Payload
Rocket body
Debris
Shape & HBR
Box + 2 Pan, 29 m
Radar Cross Section
36.964 m², Large (>1 m²)

Expand to show TLE details & history

TLE from 4 hours ago
0 STARLINK-32355
1 61634U 24191P   25189.15107854 -.00000038  00000-0  81383-5 0  9993
2 61634  43.0017  99.3166 0001128 269.4683  90.6040 15.27572530 40797
Epoch: 2025-07-08T03:37Z
TLE epoch observation values (Epoch: 2025-07-08T03:37:33.185Z)
Latitude
0.00001°
Longitude
118.57815°
Altitude
482.855 km
Speed
7.626 km/s
True Right ascension
06h 37m 15s
True Declination
0° 00' 00"
Sunlit
Object was in daylight at epoch
Visualization orbit readout
Latitude
38.67482°
Longitude
-120.87906°
Altitude
485.97 km
Speed
7.627 km/s
Apparent Right ascension
11h 15m 03s
Apparent Declination
1° 54' 09"
Sunlit
Object is in daylight
Visualization observer readout
Local Sidereal Time
19:21:11
Azimuth
292.96° NW
Elevation
-22.31°
Doppler factor
1
Orbital elements
Apogee altitude
485.791 km
Perigee altitude
484.242 km
Semi-major axis
6,863.153 km
Eccentricity
0.00011
Inclination
43.0017°
RAAN
99.3166°
Arg. of periapsis
269.4683°
True anomaly
Unknown
Mean anomaly
90.604°
Eccentric anomaly
Unknown
Mean motion
3.81731 °/min
Orbital period
94.31 mins
BSTAR
0.0000081383
Loading maneuver chart data...
Loading SW <> Apogee altitude chart data...
Loading historical data...
Loading historical data...
Loading historical data...
Loading historical data...
Loading historical data...
Loading historical data...
Loading historical data...

STARLINK-32355 Visibility forecast

Observer location: undefined°, undefined°

Span
Click to sort rows by Start time (UTC) header in descending order
Start Az.
Max El. time (UTC)
Max El. Az.
Max El.
End time (UTC)
End Az.
6 mins2025-07-08 21:04:40.366Z211.878° SW2025-07-08 21:07:40.366Z159.112° S27.064°2025-07-08 21:10:40.366Z90.704° ESE
5 mins2025-07-08 22:44:40.366Z263.203° W2025-07-08 22:46:40.366Z330.433° NNW43.816°2025-07-08 22:49:40.366Z69.472° E
5 mins2025-07-09 00:23:40.366Z292.881° NW2025-07-09 00:25:40.366Z345.094° N37.716°2025-07-09 00:28:40.366Z76.392° E
6 mins2025-07-09 02:02:40.366Z285.537° WNW2025-07-09 02:04:40.366Z263.012° W43.045°2025-07-09 02:08:40.366Z114.155° SE
|